Theta_e
349 355 360 362 364 365 366 368 368 367 365 365 365 364 363 364 364 363 363 363 363 362 364 363 362 362 361 363 361 361 360 359 358 358 359 359 358 358 357 355 355 351 355
354 359 361 364 366 365 366 366 366 366 364 364 365 364 363 364 364 364 363 364 362 361 363 362 361 360 359 359 360 360 359 358 358 360 358 360 359 358 356 353 355 356 357
356 358 360 364 367 366 366 366 367 367 365 365 365 364 364 365 364 363 364 361 359 360 362 362 360 360 360 359 358 358 359 358 356 355 354 354 355 359 357 356 354 354 356
351 354 356 365 366 366 366 366 367 365 364 363 364 362 361 361 364 363 360 362 360 362 361 360 360 359 358 357 355 355 355 355 355 357 357 352 347 357 360 358 355 356 354
352 352 359 364 364 364 364 366 366 363 361 359 360 362 364 363 361 361 361 361 360 359 360 359 358 357 356 355 355 354 354 354 354 357 358 360 357 354 355 359 355 354 352
352 355 362 364 364 363 364 365 365 364 360 364 359 358 361 361 363 359 359 359 359 359 359 357 356 354 353 354 354 355 356 357 356 355 358 358 359 358 356 353 354 353 351
354 355 361 363 364 363 365 365 364 360 357 361 363 358 357 359 360 360 359 361 360 359 357 355 355 355 355 355 355 357 358 358 355 355 358 359 359 358 357 357 355 357 355
353 356 357 363 364 364 365 364 360 357 356 357 358 359 360 362 361 360 360 359 357 356 355 355 355 355 357 359 360 362 363 363 359 356 357 357 356 354 359 359 357 357 359
354 352 354 356 364 365 364 360 357 363 364 360 360 360 361 361 359 358 358 356 355 355 356 357 358 359 360 361 360 361 363 363 360 357 356 356 356 354 359 360 358 358 359
353 352 358 358 359 355 354 358 358 363 362 361 360 360 359 358 356 357 357 356 356 358 358 359 358 357 358 359 359 361 362 365 357 353 357 358 354 355 359 360 359 359 360
349 353 357 358 360 358 352 356 359 363 362 361 360 360 360 360 360 359 358 358 360 361 361 360 359 360 363 364 362 361 362 352 349 349 352 360 355 353 357 359 360 358 358
346 350 352 356 356 357 349 357 359 358 359 362 362 364 364 363 364 359 360 361 360 358 357 359 361 365 364 355 357 363 353 352 351 351 350 359 357 357 356 357 361 358 356
347 348 352 354 355 352 353 356 358 358 359 361 365 366 366 367 366 362 361 358 359 359 357 361 359 357 357 355 352 350 351 348 348 349 354 358 357 359 359 359 361 360 358
346 349 352 354 357 356 358 356 357 357 359 359 362 365 367 360 363 363 358 361 363 359 362 360 357 360 355 353 350 349 348 346 346 347 352 352 354 356 360 360 360 360 361
346 351 353 357 360 361 362 360 359 358 359 360 362 365 367 364 364 364 362 360 360 363 359 360 360 359 355 351 350 350 346 346 347 347 348 352 352 358 360 362 362 363 364
347 351 354 357 361 361 362 365 361 360 360 360 359 361 366 364 365 363 363 360 360 359 357 359 363 359 358 355 354 354 349 348 350 350 348 351 349 349 352 356 359 362 364
347 351 352 355 358 360 362 362 360 358 357 357 357 363 364 365 366 366 362 363 361 366 366 364 363 360 356 356 355 353 349 349 348 350 349 350 351 353 353 350 351 355 356
347 350 351 349 353 357 360 359 357 356 357 357 358 359 364 364 365 364 362 362 363 366 361 360 357 355 355 355 355 351 349 349 348 348 348 347 346 345 344 343 344 346 347
350 351 352 352 351 355 359 359 359 362 359 359 360 358 365 363 362 362 358 362 367 363 364 359 358 356 351 350 348 347 349 346 347 346 348 348 346 343 342 340 340 343 343
349 352 355 354 356 358 357 360 357 357 358 361 360 358 363 361 361 362 361 365 364 357 359 358 360 354 351 346 343 341 345 348 346 346 346 343 341 340 341 342 340 338 339
349 353 356 357 360 358 354 354 353 353 357 358 359 363 364 362 362 364 357 360 364 361 361 364 359 355 349 347 342 337 339 344 344 345 345 341 339 339 339 337 335 335 336
348 352 355 357 361 362 354 355 352 355 357 358 360 363 365 364 365 364 364 359 362 359 366 362 359 351 349 347 338 337 332 335 343 342 343 338 337 336 335 335 336 337 337
349 352 355 358 359 362 363 357 357 359 360 358 359 360 363 365 366 366 366 364 363 366 361 359 357 355 345 348 343 337 334 330 335 345 345 343 339 338 340 337 335 337 339
350 353 357 359 360 360 365 363 368 355 353 354 357 358 359 363 364 364 366 365 365 359 365 357 355 353 354 344 344 343 343 339 331 332 346 344 343 342 344 338 335 336 338
350 351 354 359 362 365 366 365 359 359 355 356 357 364 365 364 363 360 361 362 362 360 366 360 356 354 352 349 343 342 343 341 343 337 334 338 343 344 340 337 335 335 337
350 350 352 359 365 365 364 363 366 367 364 356 359 356 357 357 359 364 362 362 363 362 366 361 358 355 354 346 346 349 343 340 339 338 337 340 339 338 342 338 335 337 336
Wind_Speed
4 8 11 11 13 14 15 16 15 14 14 13 12 12 10 10 10 9 10 10 12 12 11 13 12 12 10 11 11 10 10 8 7 7 7 7 7 7 6 4 6 8 7
10 13 11 12 13 14 15 15 15 14 14 13 11 11 9 9 10 11 10 11 12 11 10 13 12 11 10 10 10 8 8 7 5 5 4 9 8 4 5 3 5 11 8
15 15 13 11 13 14 15 14 14 13 13 12 12 11 10 10 11 10 11 11 11 10 11 12 10 10 9 9 7 7 7 5 3 2 5 3 9 5 4 4 3 3 6
15 14 14 10 11 13 13 13 12 13 11 11 12 11 10 9 10 11 10 9 11 11 10 9 9 8 7 6 5 4 3 2 2 4 7 1 5 9 5 4 3 4 3
13 14 16 12 11 10 11 11 12 12 11 10 11 10 10 10 10 10 9 10 10 10 9 8 6 6 5 4 3 2 2 3 3 10 4 4 5 12 5 5 7 6 3
11 15 14 12 12 11 11 11 12 13 10 9 12 10 9 9 9 10 9 8 8 7 6 5 5 4 3 4 4 4 5 6 10 4 4 4 4 11 5 4 2 1 2
12 14 15 11 12 11 12 11 12 11 10 9 11 10 9 8 8 9 8 7 6 5 4 3 3 4 5 6 7 8 8 9 11 8 4 6 5 8 6 6 6 6 5
12 14 14 9 11 10 13 11 11 11 11 11 10 10 9 8 7 7 6 4 2 2 2 2 4 5 6 7 7 9 10 10 13 5 5 6 9 2 7 7 6 6 6
12 12 11 11 12 9 10 10 10 10 10 11 10 9 8 6 6 5 4 3 2 2 3 4 3 4 5 6 7 8 9 10 11 6 6 6 11 2 5 6 6 7 7
9 10 10 9 10 9 11 9 10 9 9 9 8 7 6 6 5 5 5 5 2 3 3 4 3 3 4 5 5 6 8 14 14 7 2 7 6 3 5 5 6 7 7
10 10 9 9 8 9 9 10 9 8 8 8 8 6 10 5 6 6 8 3 3 3 3 3 4 5 8 11 8 6 11 5 7 5 5 11 2 2 5 7 7 7 8
13 12 11 10 10 9 8 9 9 10 9 6 5 5 1 4 4 5 3 3 3 2 4 5 6 11 14 6 3 11 4 8 5 5 3 7 2 3 5 8 8 8 7
13 10 12 9 9 10 9 7 5 5 5 5 5 3 3 1 2 2 2 4 3 5 3 4 4 5 8 8 8 7 7 7 5 5 7 6 3 5 4 7 8 9 8
14 12 12 11 9 8 7 7 6 5 5 5 5 4 2 4 3 3 4 2 2 4 3 5 6 6 8 7 8 9 9 8 6 5 5 4 2 3 5 7 7 9 10
14 13 13 11 10 8 7 5 5 4 5 5 5 4 1 0 2 2 4 4 3 2 4 4 6 5 6 6 6 8 11 9 8 5 4 6 4 4 4 7 9 10 10
14 14 13 12 11 10 8 6 5 5 6 5 4 4 3 2 2 2 2 3 3 4 5 5 4 4 3 6 6 7 8 9 6 6 5 4 8 4 4 5 7 9 9
13 13 14 13 13 11 10 8 6 6 6 4 4 4 4 3 2 3 2 2 4 3 2 2 1 1 4 5 7 8 7 7 6 4 5 4 8 11 8 8 8 9 7
14 13 13 12 13 12 10 8 6 5 5 4 4 4 5 4 3 3 2 1 5 2 3 2 3 5 7 8 8 7 8 5 4 4 4 5 4 2 11 8 9 10 10
14 14 14 13 13 13 11 9 8 7 6 5 4 5 6 5 4 4 3 1 2 2 2 4 6 6 5 5 5 5 6 6 4 3 2 2 2 3 4 8 6 8 9
16 14 14 12 13 13 9 8 8 7 7 6 5 5 5 5 5 4 2 2 4 4 3 4 6 4 4 6 5 6 6 4 5 5 4 4 3 5 4 5 5 4 7
17 16 15 15 14 11 10 10 9 8 7 7 6 5 5 6 6 4 5 3 4 6 3 2 4 3 9 4 8 6 7 2 6 4 4 5 3 4 5 5 4 4 1
19 17 17 16 15 13 11 9 8 8 7 7 7 7 8 8 7 6 5 5 5 5 3 4 4 5 8 1 4 4 2 3 4 5 7 3 1 3 5 5 4 4 6
20 19 18 17 16 15 14 10 8 8 6 6 7 8 9 10 9 9 8 8 7 7 6 7 8 8 7 2 4 4 2 4 8 1 2 3 3 5 6 5 5 5 6
21 19 19 18 18 16 15 11 12 10 10 9 8 8 6 7 9 10 11 11 10 9 9 9 8 7 4 7 3 3 5 5 6 7 0 4 5 6 8 7 7 5 6
21 20 19 19 17 16 15 15 12 14 11 10 9 9 7 5 8 10 12 12 11 9 10 10 10 9 4 4 9 7 4 7 6 7 12 6 4 5 5 5 6 6 6
20 20 19 19 18 18 17 18 17 14 13 11 10 9 8 7 8 11 12 12 11 10 9 10 10 8 5 1 6 9 8 9 10 7 10 12 10 7 2 5 6 5 7
Wind_Direction
182 191 181 141 112 100 99 105 112 116 116 117 118 118 121 112 110 112 103 103 91 91 95 99 97 90 85 86 91 87 86 89 99 100 87 97 102 103 96 112 239 133 104
152 152 149 126 115 109 103 105 111 113 118 120 119 120 120 115 111 107 109 97 91 93 88 93 96 96 94 90 91 90 92 88 71 89 132 159 146 136 123 110 359 75 120
166 138 146 122 118 114 114 115 115 117 121 124 120 114 107 101 110 109 96 95 95 98 91 91 95 96 96 93 93 97 95 99 113 108 250 272 106 136 157 125 108 103 102
145 146 141 126 119 119 117 116 118 117 115 115 118 112 109 116 102 95 94 100 97 88 94 94 90 92 93 93 90 88 100 140 187 236 243 8 77 112 158 155 143 118 130
143 145 115 130 127 120 123 125 122 120 116 111 109 110 106 109 102 98 95 94 100 103 100 94 95 86 77 74 60 33 343 307 306 259 343 333 351 118 141 172 178 177 206
144 119 129 145 138 138 138 129 124 120 117 122 108 111 98 95 109 111 105 103 104 105 102 99 88 74 38 10 353 337 321 326 299 306 320 99 280 107 162 205 216 151 222
151 121 134 132 127 136 129 117 107 108 119 106 110 111 113 108 99 106 112 107 109 108 94 65 24 3 349 341 335 327 327 325 296 300 4 340 359 128 201 211 215 207 201
140 132 131 133 135 132 123 118 122 125 123 123 125 124 117 112 111 114 118 117 107 91 68 8 346 338 332 326 328 327 324 321 299 332 348 318 48 134 203 212 221 231 232
143 123 136 142 131 120 118 129 130 136 134 130 127 122 123 125 128 127 121 98 64 346 345 334 318 318 317 320 315 314 313 306 289 296 334 340 49 13 219 224 234 243 252
138 141 129 144 146 159 150 134 139 138 131 130 127 130 143 146 154 150 180 112 33 9 355 337 357 360 327 303 300 313 312 276 257 338 340 59 42 348 244 233 249 256 263
154 157 148 152 152 140 139 138 153 150 137 140 149 152 192 161 141 172 70 41 6 20 33 28 348 316 283 241 221 252 264 305 345 328 313 94 88 296 268 258 257 261 275
163 160 155 171 152 156 152 157 155 149 161 135 122 155 149 80 56 7 96 185 178 248 225 222 247 249 248 359 120 205 336 339 318 332 345 77 340 280 269 263 262 262 294
164 164 159 163 164 170 140 168 168 162 145 145 159 196 80 113 100 100 119 130 95 190 95 208 178 19 14 356 6 360 341 334 343 337 61 66 332 294 250 255 265 264 280
169 171 168 163 167 177 163 184 157 158 160 174 136 170 165 208 141 3 38 102 178 64 359 18 35 13 15 19 4 355 341 344 338 322 69 87 301 281 237 240 255 255 246
175 171 170 168 172 173 192 160 177 165 187 134 174 148 233 313 52 25 47 19 21 56 61 29 36 31 4 12 4 357 356 343 333 310 312 121 344 325 261 261 264 257 254
178 175 172 178 177 180 195 179 183 192 142 202 168 149 176 279 58 29 49 46 67 30 22 20 24 4 347 350 3 1 344 356 1 337 334 134 120 48 350 307 285 273 258
180 181 178 184 182 186 194 190 200 179 194 190 186 186 219 239 138 317 46 358 40 20 309 52 264 319 358 354 2 7 354 360 360 348 309 345 128 104 74 58 52 46 41
186 187 187 189 182 188 190 190 205 194 220 216 213 201 200 210 221 240 255 345 35 28 14 25 9 350 9 0 347 359 342 324 346 1 24 346 351 9 124 74 49 40 27
191 187 192 193 189 190 193 200 209 199 226 239 231 212 173 220 220 268 269 59 321 326 351 320 63 44 13 335 311 330 345 308 302 16 345 344 22 336 350 124 127 82 49
189 192 193 193 196 194 196 208 210 215 222 229 222 225 170 214 215 229 224 333 281 268 262 8 65 41 274 244 290 330 306 285 291 313 327 311 31 327 334 347 325 63 110
195 195 196 194 192 194 199 203 208 215 217 225 224 216 212 224 206 217 267 239 245 257 289 52 139 250 274 5 300 312 347 15 308 325 319 322 352 318 351 347 319 331 322
198 202 200 202 196 201 201 213 222 224 233 229 223 220 224 230 226 239 260 267 264 268 190 172 197 261 279 122 324 330 40 278 210 283 279 247 335 313 300 285 321 324 308
204 202 205 203 203 204 215 204 209 237 243 229 228 230 226 231 240 241 249 256 262 253 167 179 191 222 269 14 318 341 317 327 331 46 290 265 244 279 307 294 272 295 315
204 203 204 203 205 205 205 215 213 221 227 227 232 236 234 224 235 234 238 243 238 253 150 196 195 218 244 340 334 295 301 319 322 315 137 190 242 262 287 280 301 282 291
204 203 202 203 205 210 199 220 213 225 236 237 244 242 233 256 233 234 234 238 237 234 179 204 207 214 196 77 327 313 310 294 277 292 306 313 254 304 236 266 310 299 301
203 204 202 199 203 203 205 208 222 229 228 243 227 243 232 232 207 216 233 233 236 238 170 208 222 222 218 184 267 289 298 311 310 282 285 296 327 309 299 290 299 309 317